Change the Weather History Date:

Sunday, July 28, 2013

  Actual Average Record
Temperature  
Mean Temperature 59 °F 71 °F  
Max Temperature 68 °F 81 °F 91 °F (1998)
Min Temperature 50 °F 60 °F 50 °F (2013)
Degree Days  
Heating Degree Days 6    
Month to date heating degree days 11  
Since 1 June heating degree days 64  
Since 1 July heating degree days 11  
Cooling Degree Days 0    
Month to date cooling degree days 231  
Year to date cooling degree days 444  
Since 1 June cooling degree days 370  
Growing Degree Days 9 (Base 50)    
Moisture  
Dew Point 51 °F    
Average Humidity 72    
Maximum Humidity 89    
Minimum Humidity 55    
Precipitation  
Precipitation 0.07 in 0.08 in 2.36 in (1996)
Month to date precipitation 0.54 2.31  
Year to date precipitation 21.43 16.94  
Snow  
Snow 0.00 in - - ()
Month to date snowfall 0.0  
Since 1 June snowfall 0.0  
Since 1 July snowfall 0.0  
Snow Depth 0.00 in    
Sea Level Pressure  
Sea Level Pressure 29.86 in    
Wind  
Wind Speed 9 mph (SW)    
Max Wind Speed 18 mph    
Max Gust Speed 24 mph    
Visibility 10 miles    
Events Rain    
T = Trace of Precipitation, MM = Missing Value Source: NWS Daily Summary

Daily Weather History Graph

Daily Weather History Graph

Search for Another Location

Airport or City:

Trip Planner

Search our weather history database for the weather conditions in past years. The results will help you decide how hot, cold, wet, or windy it might be!

Date:

Astronomy

Jul. 28, 2013 Rise Set
Actual Time 6:21 AM EDT 9:03 PM EDT
Civil Twilight 5:48 AM EDT 9:36 PM EDT
Nautical Twilight 5:07 AM EDT 10:17 PM EDT
Astronomical Twilight 4:19 AM EDT 11:04 PM EDT
Moon No Moon Rise 1:17 PM EDT (7/28)
Length of Visible Light 15h 47m
Length of Day
14h 41m
Waning Gibbous, 61% of the Moon is Illuminated
Jul 28
Waning Gibbous
Jul 29
Last Quarter
Aug 6
New
Aug 14
First Quarter
Aug 20
Full

Hourly Weather History & Observations

Time (EDT) Temp. Dew Point Humidity Pressure Visibility Wind Dir Wind Speed Gust Speed Precip Events Conditions
12:53 AM 53.1 °F 48.9 °F 86% 29.83 in 10.0 mi WSW 5.8 mph - N/A   Mostly Cloudy
1:53 AM 55.9 °F 48.9 °F 77% 29.82 in 10.0 mi WSW 10.4 mph - N/A   Overcast
2:53 AM 55.9 °F 48.0 °F 75% 29.81 in 10.0 mi SW 6.9 mph - N/A   Overcast
3:53 AM 54.0 °F 48.0 °F 80% 29.82 in 10.0 mi SW 8.1 mph - N/A   Overcast
4:53 AM 50.0 °F 46.9 °F 89% 29.83 in 10.0 mi SW 5.8 mph - N/A   Clear
5:53 AM 51.1 °F 48.0 °F 89% 29.83 in 10.0 mi SSW 4.6 mph - N/A   Partly Cloudy
6:53 AM 53.1 °F 48.9 °F 86% 29.84 in 10.0 mi SSW 5.8 mph - N/A   Overcast
7:53 AM 55.0 °F 50.0 °F 83% 29.84 in 10.0 mi South 6.9 mph - N/A   Overcast
8:53 AM 57.0 °F 51.1 °F 81% 29.85 in 10.0 mi SSW 8.1 mph - N/A   Overcast
9:53 AM 57.0 °F 52.0 °F 83% 29.86 in 10.0 mi SW 10.4 mph - 0.00 in Rain Light Rain
10:53 AM 57.9 °F 53.1 °F 84% 29.86 in 10.0 mi SW 6.9 mph - 0.00 in   Overcast
11:01 AM 59.0 °F 53.6 °F 82% 29.85 in 10.0 mi SSW 6.9 mph - N/A   Overcast
11:45 AM 60.8 °F 51.8 °F 72% 29.85 in 10.0 mi SSW 8.1 mph - N/A   Overcast
11:53 AM 60.1 °F 52.0 °F 75% 29.86 in 10.0 mi SSW 8.1 mph - N/A   Overcast
12:38 PM 62.6 °F 53.6 °F 72% 29.85 in 10.0 mi SW 11.5 mph - 0.01 in   Overcast
12:53 PM 62.1 °F 53.1 °F 72% 29.86 in 10.0 mi WSW 9.2 mph - 0.01 in   Overcast
1:13 PM 62.6 °F 51.8 °F 68% 29.85 in 10.0 mi WSW 11.5 mph - N/A   Mostly Cloudy
1:53 PM 66.0 °F 52.0 °F 60% 29.85 in 10.0 mi WSW 9.2 mph - N/A   Overcast
2:53 PM 64.0 °F 52.0 °F 65% 29.85 in 10.0 mi WNW 8.1 mph - N/A   Mostly Cloudy
3:53 PM 64.0 °F 50.0 °F 60% 29.86 in 10.0 mi SW 13.8 mph - 0.00 in Rain Light Rain
4:53 PM 66.0 °F 51.1 °F 59% 29.87 in 10.0 mi WSW 17.3 mph - 0.00 in   Overcast
5:53 PM 66.0 °F 53.1 °F 63% 29.88 in 10.0 mi WSW 11.5 mph - 0.00 in   Mostly Cloudy
6:53 PM 68.0 °F 51.1 °F 55% 29.89 in 10.0 mi West 12.7 mph - N/A   Overcast
7:53 PM 64.9 °F 50.0 °F 58% 29.91 in 10.0 mi WSW 9.2 mph - N/A   Overcast
8:53 PM 62.1 °F 48.9 °F 62% 29.93 in 10.0 mi West 12.7 mph - N/A   Scattered Clouds
9:53 PM 61.0 °F 50.0 °F 67% 29.94 in 10.0 mi West 9.2 mph - N/A   Mostly Cloudy
10:53 PM 57.9 °F 53.1 °F 84% 29.96 in 10.0 mi WSW 10.4 mph - 0.01 in Rain Light Rain
11:53 PM 57.0 °F 54.0 °F 89% 29.96 in 10.0 mi SW 6.9 mph - 0.03 in Rain Light Rain